LRAR Weather Reports


Display with metric or nautical units.
time (UTC)temp
F
wind
direction
speed
MPH
gust
MPH
rain 1hr
in
rain 24hr
in
rain mn
in
humidity
%
barometer
mb
20260506061838 61 190 7.0 0.0 0.00 0.00 0.00 63 1014.0
20260506060340 61 190 7.0 0.0 0.00 0.00 0.00 63 1014.0
20260506050353 55 2.0 0.0 0.00 0.00 0.00 72 1014.0
20260506044854 54 190 2.0 0.0 0.00 0.00 0.00 77 1014.0
20260506043342 54 190 2.0 0.0 0.00 0.00 0.00 77 1014.0
20260506041839 52 170 2.0 0.0 0.00 0.00 0.00 77 1013.0
20260506040338 52 170 2.0 0.0 0.00 0.00 0.00 77 1013.0
20260506034839 50 160 2.0 0.0 0.00 0.00 0.00 76 1013.0
20260506033338 50 160 2.0 0.0 0.00 0.00 0.00 76 1013.0
20260506031838 48 160 5.0 0.0 0.00 0.00 0.00 82 1013.0
20260506030338 48 160 5.0 0.0 0.00 0.00 0.00 82 1013.0
20260506024838 48 140 2.0 0.0 0.00 0.00 0.00 82 1013.0
20260506023338 48 140 2.0 0.0 0.00 0.00 0.00 82 1013.0
20260506021838 50 140 2.0 0.0 0.00 0.00 0.00 76 1013.0
20260506020338 50 140 2.0 0.0 0.00 0.00 0.00 76 1013.0
20260506014838 52 2.0 0.0 0.00 0.00 0.00 67 1013.0
20260506013338 52 2.0 0.0 0.00 0.00 0.00 67 1013.0
20260506011839 50 170 5.0 0.0 0.00 0.00 0.00 76 1013.0
20260506010338 50 170 5.0 0.0 0.00 0.00 0.00 76 1013.0
20260506004838 50 140 7.0 0.0 0.00 0.00 0.00 71 1012.0
20260506003459 50 140 7.0 0.0 0.00 0.00 0.00 71 1012.0
20260506001839 50 180 3.0 0.0 0.00 0.00 0.00 71 1012.0
20260506000339 50 180 3.0 0.0 0.00 0.00 0.00 71 1012.0
20260505234838 52 170 2.0 0.0 0.00 0.00 0.00 67 1012.0
20260505233338 52 170 2.0 0.0 0.00 0.00 0.00 67 1012.0
20260505231838 55 2.0 0.0 0.00 0.00 0.00 55 1012.0
20260505230339 55 2.0 0.0 0.00 0.00 0.00 55 1012.0
20260505224838 54 230 3.0 0.0 0.00 0.00 0.00 58 1012.0
20260505223338 54 230 3.0 0.0 0.00 0.00 0.00 58 1012.0
20260505221835 55 170 3.0 0.0 0.00 0.00 0.00 59 1012.0
20260505220339 55 170 3.0 0.0 0.00 0.00 0.00 59 1012.0
20260505214839 57 140 6.0 0.0 0.00 0.00 0.00 59 1012.0
20260505213338 57 140 6.0 0.0 0.00 0.00 0.00 59 1012.0
20260505211838 57 130 5.0 0.0 0.00 0.00 0.00 55 1011.0
20260505210338 57 130 5.0 0.0 0.00 0.00 0.00 55 1011.0
20260505204840 59 2.0 0.0 0.00 0.00 0.00 55 1011.0
20260505203338 59 2.0 0.0 0.00 0.00 0.00 55 1011.0
20260505201909 59 0 0.0 0.0 0.00 0.00 0.00 55 1011.0
20260505200339 59 0 0.0 0.0 0.00 0.00 0.00 55 1011.0
20260505194838 61 180 3.0 0.0 0.00 0.00 0.00 52 1011.0
20260505193338 61 180 3.0 0.0 0.00 0.00 0.00 52 1011.0
20260505191838 59 200 6.0 0.0 0.00 0.00 0.00 55 1011.0
20260505190338 59 200 6.0 0.0 0.00 0.00 0.00 55 1011.0
20260505184839 66 190 6.0 0.0 0.00 0.00 0.00 43 1011.0
20260505183339 66 190 6.0 0.0 0.00 0.00 0.00 43 1011.0
20260505181839 70 190 6.0 0.0 0.00 0.00 0.00 38 1011.0
20260505180338 70 190 6.0 0.0 0.00 0.00 0.00 38 1011.0
20260505174836 72 190 5.0 0.0 0.00 0.00 0.00 38 1011.0
20260505173338 72 190 5.0 0.0 0.00 0.00 0.00 38 1011.0
20260505171838 77 190 5.0 0.0 0.00 0.00 0.00 28 1011.0
20260505170339 77 190 5.0 0.0 0.00 0.00 0.00 28 1011.0
20260505164838 79 210 7.0 0.0 0.00 0.00 0.00 24 1011.0
20260505163338 79 210 7.0 0.0 0.00 0.00 0.00 24 1011.0
20260505161839 79 190 5.0 0.0 0.00 0.00 0.00 28 1011.0
20260505160339 79 190 5.0 0.0 0.00 0.00 0.00 28 1011.0
20260505153338 79 210 6.0 0.0 0.00 0.00 0.00 26 1011.0
20260505151846 81 220 11.0 0.0 0.00 0.00 0.00 21 1012.0
20260505150339 81 220 11.0 0.0 0.00 0.00 0.00 21 1012.0
20260505140338 81 190 13.0 0.0 0.00 0.00 0.00 20 1012.0
20260505124838 81 170 10.0 0.0 0.00 0.00 0.00 20 1013.0
20260505123338 81 170 10.0 0.0 0.00 0.00 0.00 20 1013.0
20260505121838 81 210 11.0 0.0 0.00 0.00 0.00 24 1013.0
20260505120347 81 220 9.0 0.0 0.00 0.00 0.00 24 1014.0
20260505114846 81 220 9.0 0.0 0.00 0.00 0.00 24 1014.0
20260505113409 81 220 9.0 0.0 0.00 0.00 0.00 24 1014.0
20260505111839 79 170 7.0 0.0 0.00 0.00 0.00 26 1014.0
20260505110339 79 170 7.0 0.0 0.00 0.00 0.00 26 1014.0
20260505101839 77 180 7.0 0.0 0.00 0.00 0.00 30 1015.0
20260505100338 77 180 7.0 0.0 0.00 0.00 0.00 30 1015.0
20260505094840 77 160 6.0 0.0 0.00 0.00 0.00 28 1015.0
20260505093338 77 160 6.0 0.0 0.00 0.00 0.00 28 1015.0
20260505091838 75 160 7.0 0.0 0.00 0.00 0.00 31 1015.0
20260505090338 75 160 7.0 0.0 0.00 0.00 0.00 31 1015.0
20260505084838 73 170 6.0 0.0 0.00 0.00 0.00 33 1015.0
20260505083339 73 170 6.0 0.0 0.00 0.00 0.00 33 1015.0
20260505081839 72 180 6.0 0.0 0.00 0.00 0.00 38 1016.0
20260505080338 72 180 6.0 0.0 0.00 0.00 0.00 38 1016.0
20260505074858 70 170 7.0 0.0 0.00 0.00 0.00 40 1016.0
20260505073338 70 170 7.0 0.0 0.00 0.00 0.00 40 1016.0
20260505071838 68 160 6.0 0.0 0.00 0.00 0.00 43 1016.0
20260505070338 68 160 6.0 0.0 0.00 0.00 0.00 43 1016.0
20260505064838 66 150 8.0 0.0 0.00 0.00 0.00 49 1016.0
20260505063339 66 150 8.0 0.0 0.00 0.00 0.00 49 1016.0